Location: Bakov nad Jizerou
(50.4784°N, 14.9394°E)
Time: 09:27:40
(UTC+00:00)

Cosmos 1741 Rocket - Pass Details

Date: 16 June 2021
Orbit: 761 x 783 km, 74.0° (Epoch: 04 August)

Event Time Altitude Azimuth Distance (km) Brightness Sun altitude
Rises 19:53:44 0° 336° (NNW) 3,245 8.9 -5.4°
Reaches altitude 10° 19:56:08 10° 338° (NNW) 2,318 7.9 -5.6°
Maximum altitude 20:01:24 75° 65° (ENE) 802 4.1 -6.2°
Drops below altitude 10° 20:06:40 10° 151° (SSE) 2,317 5.8 -6.7°
Enters shadow 20:07:10 - 151° (SSE) 2,508 6.0 -6.8°
